Location: Brachbach
(49.1847°N, 9.7240°E)
Time: 19:43:54
(UTC+00:00)

Cosmos 2219 Rocket - Pass Details

Date: 21 August 2024
Orbit: 826 x 846 km, 71.0° (Epoch: 09 September)

Event Time Altitude Azimuth Distance (km) Brightness Sun altitude
Exits shadow 00:33:16 17° 282° (WNW) 2,029 4.1 -26.9°
Maximum altitude 00:35:56 23° 319° (NW) 1,730 4.1 -26.8°
Drops below altitude 10° 00:40:25 10° 11° (N) 2,481 5.6 -26.5°
Sets 00:43:25 0° 25° (NNE) 3,418 6.7 -26.4°
